Tracking 29065 objects as of 22-Jul-2024
HD Live streaming from Space Station
objects crossing your sky now

WESTFORD NEEDLES

Track WESTFORD NEEDLES now!
10-day predictions
WESTFORD NEEDLES is classified as:


NORAD ID: 2362
Int'l Code: 1963-014M
Perigee: 1,105.2 km
Apogee: 5,928.3 km
Inclination: 85.4 °
Period: 163.1 minutes
Semi major axis: 9887 km
RCS: 0.2493 m2 (medium)
Launch date: May 9, 1963
Source: United States (US)
Launch site: AIR FORCE WESTERN TEST RANGE (AFWTR)
Your satellite tracking list
Your tracking list is empty




NASA's NSSDC Master Catalog

Two Line Element Set (TLE):
1  2362U 63014M   24204.20468428  .00007429  00000-0  10665+0 0  9992
2  2362  85.3682  99.0758 2438914 138.5965 242.8071  8.82985652945288
Source of the keplerian elements: AFSPC